Tracking 22124 objects as of 25-Jan-2021
HD Live streaming from Space Station
objects crossing your sky now

ESA/GOES

Track ESA/GOES now!
ESA/GOES is classified as:


NORAD ID: 9931
Int'l Code: 1977-029A
Perigee: 2,783.4 km
Apogee: 38,384.8 km
Inclination: 27.7 °
Period: 734.0 minutes
Semi major axis: 26955 km
RCS: 4.0849 m2 (large)
Launch date: April 20, 1977
Source: European Space Agency (ESA)
Launch site: AIR FORCE EASTERN TEST RANGE (AFETR)
aabbcc
Your satellite tracking list
Your tracking list is empty




NASA's NSSDC Master Catalog

Two Line Element Set (TLE):
1 09931U 77029A   21025.39623919 -.00000373  00000-0  00000-0 0  9993
2 09931  27.7497  43.3600 6603840  72.4844 346.0822  1.96173872313211
Source of the keplerian elements: AFSPC